Home   Weather   Denare Beach   Past weeks
Flag for Canada

Past Weather in Denare Beach, Saskatchewan, Canada — Yesterday and Last 2 Weeks

Now
54 °F

Clear.


Feels Like: 54 °F
Forecast: 61 / 47 °F
Wind: No wind

Location: The Pas

Current Time: Sep 20, 2019 at 10:14:38 pm

Latest Report: Sep 20, 2019 at 9:00 pm


Visibility: 9 mi

Pressure: 29.72 "Hg

Humidity: 94%

Dew Point: 52 °F

Location of Denare BeachLocation

Past Weather in Denare Beach — Graph

°F

Denare Beach Temperature Yesterday

Maximum temperature yesterday: 64 °F (at 4:00 pm)
Minimum temperature yesterday: 39 °F (at 7:00 am)
Average temperature yesterday: 54 °F

High & Low Weather Summary for the Past Weeks

 TemperatureHumidityPressure
High81 °F (Sep 16, 3:00 pm)100% (Sep 7, 7:00 am)30.41 "Hg (Sep 7, 7:00 am)
Low36 °F (Sep 7, 7:00 am)48% (Sep 7, 1:00 pm)29.42 "Hg (Sep 18, 7:40 am)
Average55 °F83%29.98 "Hg
* Reported Sep 5 9:00 pm — Sep 20 9:00 pm, Denare Beach. Weather by CustomWeather, © 2019

Note: Actual official high and low records may vary slightly from our data, if they occured in-between our weather recording intervals... More about our weather records

Advertising

Denare Beach Weather History for the Previous 24 Hours

Scroll right to see more
 ConditionsComfort  
Time TempWeatherWind HumidityBarometerVisibility
9:00 pm
Fri, Sep 20
54 °FClear.No wind94%29.72 "Hg9 mi
8:00 pm59 °FClear.6 mph82%29.71 "Hg9 mi
7:00 pm61 °FScattered clouds.5 mph83%29.72 "Hg9 mi
6:43 pm63 °FOvercast.8 mph77%29.72 "Hg9 mi
6:10 pm63 °FOvercast.10 mph77%29.71 "Hg9 mi
5:00 pm68 °FScattered clouds.15 mph64%29.68 "Hg9 mi
4:00 pm64 °FOvercast.13 mph78%29.67 "Hg9 mi
3:20 pm64 °FMostly cloudy.12 mph83%29.67 "Hg9 mi
3:00 pm64 °FOvercast.14 mph78%29.67 "Hg9 mi
2:00 pm68 °FMostly cloudy.9 mph73%29.65 "Hg9 mi
1:00 pm68 °FPassing clouds.16 mph73%29.63 "Hg9 mi
12:00 pm66 °FSunny.12 mph78%29.67 "Hg9 mi
11:00 am63 °FPassing clouds.15 mph83%29.70 "Hg9 mi
10:42 am61 °FScattered clouds.16 mph88%29.71 "Hg9 mi
8:16 am59 °FMostly cloudy.5 mph82%29.76 "Hg9 mi
7:00 am57 °FPassing clouds.15 mph82%29.70 "Hg9 mi
6:00 am57 °FPassing clouds.15 mph82%29.77 "Hg9 mi
5:00 am55 °FPassing clouds.18 mph88%29.82 "Hg9 mi
4:00 am55 °FClear.12 mph88%29.84 "Hg9 mi
3:00 am55 °FOvercast.10 mph88%29.87 "Hg9 mi
2:00 am55 °FMostly cloudy.13 mph88%29.91 "Hg9 mi
1:00 am55 °FOvercast.13 mph88%29.91 "Hg9 mi
12:00 am55 °FPassing clouds.13 mph88%29.94 "Hg9 mi
11:00 pm
Thu, Sep 19
55 °FOvercast.9 mph82%29.96 "Hg9 mi
10:00 pm55 °FMostly cloudy.7 mph77%29.98 "Hg9 mi
Weather by CustomWeather, © 2019

See weather overview